This demonstration page uses our WeatherBlox Daily Observations layout. Learn more.

Left ArrowRight Arrow

34.74481, -87.66753

Hourly Observations for December 19, 2019

Temp ( °F °C ) Dew Point ( °F °C ) Humidity (%) Winds ( mph kmh ) Pressure ( in mb ) Visibility ( mi km ) Precip ( " mm )
12:53 am 00:53 Clear 32 0 26 -3.3 79 79 NE 7 11 30.40 1030 10 16 0.00 0.00
1:53 am 01:53 Clear 31 -0.6 25 -3.9 79 79 NE 7 11 30.41 1030 10 16 0.00 0.00
2:53 am 02:53 Clear 30 -1.1 24 -4.4 79 79 ENE 5 7 30.43 1031 10 16 0.00 0.00
3:53 am 03:53 Clear 30 -1.1 24 -4.4 79 79 NE 5 7 30.44 1031 10 16 0.00 0.00
4:53 am 04:53 Clear 29 -1.7 23 -5 78 78 Calm 30.46 1031 10 16 0.00 0.00
5:53 am 05:53 Clear 28 -2.2 22 -5.6 78 78 E 3 6 30.47 1032 10 16 0.00 0.00
6:53 am 06:53 Sunny 28 -2.2 21 -6.1 75 75 E 3 6 30.47 1032 9 14 0.00 0.00
7:53 am 07:53 Sunny 31 -0.6 23 -5 72 72 NE 5 7 30.48 1032 9 14 0.00 0.00
8:53 am 08:53 Sunny 33 0.6 24 -4.4 70 70 ENE 7 11 30.49 1033 9 14 0.00 0.00
9:53 am 09:53 Sunny 35 1.7 24 -4.4 64 64 E 5 7 30.49 1033 10 16 0.00 0.00
10:53 am 10:53 Sunny 39 3.9 25 -3.9 57 57 Calm 30.47 1032 10 16 0.00 0.00
11:53 am 11:53 Sunny 43 6.1 22 -5.6 43 43 Calm 30.44 1031 10 16 0.00 0.00
12:53 pm 12:53 Sunny 47 8.3 24 -4.4 41 41 NNW 3 6 30.42 1030 10 16 0.00 0.00
1:53 pm 13:53 Sunny 49 9.4 20 -6.7 32 32 ENE 6 9 30.41 1030 10 16 0.00 0.00
2:53 pm 14:53 Sunny 51 10.6 19 -7.2 28 28 Calm 30.40 1030 10 16 0.00 0.00
3:53 pm 15:53 Sunny 50 10 21 -6.1 32 32 E 5 7 30.41 1030 10 16 0.00 0.00
4:53 pm 16:53 Clear 43 6.1 24 -4.4 47 47 Calm 30.41 1030 10 16 0.00 0.00
5:53 pm 17:53 Clear 42 5.6 23 -5 47 47 Calm 30.42 1030 10 16 0.00 0.00
6:53 pm 18:53 Clear 37 2.8 28 -2.2 70 70 SE 3 6 30.43 1030 10 16 0.00 0.00
7:53 pm 19:53 Clear 35 1.7 26 -3.3 70 70 Calm 30.43 1030 10 16 0.00 0.00
8:53 pm 20:53 Clear 34 1.1 29 -1.7 82 82 Calm 30.44 1031 10 16 0.00 0.00
9:53 pm 21:53 Clear 32 0 27 -2.8 82 82 Calm 30.44 1031 10 16 0.00 0.00
10:53 pm 22:53 Clear 31 -0.6 27 -2.8 85 85 Calm 30.45 1031 10 16 0.00 0.00
11:53 pm 23:53 Clear 30 -1.1 26 -3.3 85 85 Calm 30.44 1031 10 16 0.00 0.00

Powered by AerisWeather